TimeCDT,TemperatureF,Dew PointF,Humidity,Sea Level PressureIn,VisibilityMPH,Wind Direction,Wind SpeedMPH,Gust SpeedMPH,PrecipitationIn,Events,Conditions,WindDirDegrees,DateUTC
12:53 AM,48.9,41.0,74,30.22,10.0,North,4.6,-,N/A,,Overcast,350,2013-04-05 05:53:00
1:53 AM,48.9,41.0,74,30.20,10.0,North,4.6,-,N/A,,Overcast,360,2013-04-05 06:53:00
2:42 AM,48.2,41.0,76,30.21,10.0,Calm,Calm,-,N/A,,Scattered Clouds,0,2013-04-05 07:42:00
2:53 AM,48.0,41.0,77,30.20,10.0,Calm,Calm,-,N/A,,Clear,0,2013-04-05 07:53:00
3:53 AM,45.0,41.0,86,30.20,10.0,NW,4.6,-,N/A,,Clear,310,2013-04-05 08:53:00
4:53 AM,44.1,39.9,85,30.21,10.0,WNW,6.9,-,N/A,,Clear,300,2013-04-05 09:53:00
5:53 AM,43.0,39.9,89,30.21,7.0,NW,6.9,-,N/A,,Clear,320,2013-04-05 10:53:00
6:53 AM,42.1,39.9,92,30.23,8.0,NW,3.5,-,N/A,,Clear,310,2013-04-05 11:53:00
7:53 AM,44.1,41.0,89,30.24,6.0,Calm,Calm,-,N/A,,Clear,0,2013-04-05 12:53:00
8:53 AM,48.9,43.0,80,30.25,10.0,North,6.9,-,N/A,,Clear,350,2013-04-05 13:53:00
9:53 AM,55.0,43.0,64,30.26,10.0,NNW,6.9,-,N/A,,Clear,330,2013-04-05 14:53:00
10:53 AM,57.9,43.0,58,30.26,10.0,NE,3.5,-,N/A,,Clear,50,2013-04-05 15:53:00
11:53 AM,61.0,43.0,52,30.27,10.0,Calm,Calm,-,N/A,,Clear,0,2013-04-05 16:53:00
12:53 PM,63.0,46.0,54,30.23,10.0,NE,8.1,-,N/A,,Clear,40,2013-04-05 17:53:00
1:53 PM,64.9,46.0,50,30.19,10.0,Calm,Calm,-,N/A,,Clear,0,2013-04-05 18:53:00
2:53 PM,66.9,46.9,49,30.16,10.0,Calm,Calm,-,N/A,,Clear,0,2013-04-05 19:53:00
3:53 PM,69.1,48.9,49,30.12,10.0,Variable,4.6,-,N/A,,Clear,0,2013-04-05 20:53:00
4:53 PM,68.0,46.9,47,30.11,10.0,SSW,6.9,-,N/A,,Clear,200,2013-04-05 21:53:00
5:53 PM,69.1,46.9,45,30.09,10.0,SSE,6.9,-,N/A,,Clear,160,2013-04-05 22:53:00
6:53 PM,68.0,46.9,47,30.09,10.0,South,5.8,-,N/A,,Clear,170,2013-04-05 23:53:00
7:53 PM,64.9,50.0,58,30.09,10.0,South,3.5,-,N/A,,Clear,170,2013-04-06 00:53:00
8:53 PM,61.0,50.0,67,30.09,10.0,SE,4.6,-,N/A,,Clear,140,2013-04-06 01:53:00
9:53 PM,61.0,50.0,67,30.11,10.0,SSE,3.5,-,N/A,,Clear,160,2013-04-06 02:53:00
10:53 PM,57.9,48.9,72,30.11,10.0,SSE,5.8,-,N/A,,Clear,150,2013-04-06 03:53:00
11:53 PM,57.9,48.9,72,30.08,10.0,SSE,5.8,-,N/A,,Clear,160,2013-04-06 04:53:00